アシュブルック-ジャクソン彗星

47P/Ashbrook-Jackson (2017)

English version
Home page
Updated on May 31, 2021

---------------------------------------------------------------------

・ プロフィール

・ 写真集

・ 軌道要素

Epoch 2017 June 16.0 TT = JDT 2457920.5                                         
T 2017 June 10.16586 TT                                 Rudenko                 
q   2.8182260            (2000.0)            P               Q                  
n   0.11757363     Peri.  357.66691     +0.99568514     +0.09202983             
a   4.1266354      Node   356.97456     -0.08107021     +0.80028984             
e   0.3170645      Incl.   13.03029     -0.04515220     +0.59250880             
P   8.38                                                                        
From 2851 observations 1965 Jan. 31-2021 Mar. 7, mean residual 0".8.            
     Nongravitational parameters A1 = +0.10, A2 = -0.0054.                      

・ 星図

・ 光度変化

        m1 = 11.5 + 5 logΔ + 10.0 log r            [    ,-610]  (              〜2015年10月 9日)
        m1 =  3.0 + 5 logΔ + 24.0 log r(t + 20)    [-610, 550]  (2015年10月 9日〜2018年12月12日)
        m1 = 11.5 + 5 logΔ + 10.0 log r            [ 550,1015]  (2018年12月12日〜2020年 3月21日)
        m1 = -7.8 + 5 logΔ + 50   log r(t - 1350)  [1015,    ]  (2020年 3月21日〜              )

---------------------------------------------------------------------

軌道要素はM.P.E.C. 2021-F20に掲載されたものです。
星図はステラナビゲータ Ver.8 (アストロアーツ) で作成したものです。
光度グラフはComet for Windowsで作成したものです。

---------------------------------------------------------------------

Copyright(C) Seiichi Yoshida (comet@aerith.net). All rights reserved.